Simultaneous Nadir Overpasses (SNOs) Predictions

Prediction of SNOs between GOES-16 and METOP-B Satellite Orbit:

Table of predicted SNOs for the next 14.0 days since TLE Epoch: 3/12/2022
Index Date Time (GOES-16) GOES-16 Lat,Lon METOP-B Lat,Lon Distance(km) Time Diff (sec)
1 03/13/2022 02:42:49 -0.05, -75.21 -0.62, -77.73 286.71 80
2 03/14/2022 02:19:29 -0.04, -75.21 0.52, -72.74 282.75 80
3 03/15/2022 14:41:01 0.05, -75.24 0.49, -77.30 233.96 80
4 03/16/2022 14:17:40 0.05, -75.25 -0.59, -72.30 336.07 80
5 03/18/2022 02:39:20 -0.05, -75.25 -0.44, -76.89 187.93 80
6 03/19/2022 02:16:00 -0.05, -75.26 0.70, -71.91 382.34 80
7 03/20/2022 14:37:31 0.05, -75.30 0.31, -76.47 133.49 80
8 03/21/2022 14:14:12 0.05, -75.31 -0.83, -71.48 437.03 80
9 03/23/2022 02:35:50 -0.05, -75.31 -0.24, -76.07 86.45 80
10 03/24/2022 02:12:31 -0.04, -75.32 0.91, -71.08 483.94 80
11 03/25/2022 14:31:22 0.04, -75.36 0.10, -75.64 31.92 80
